Find Starlink 35080

NORAD ID: 65437 Int'l Des: 2025-194 Owner: SPXS Country: US Constellation: starlink operational
LEOCIRCULARRETROGRADESSO

当前视图

正在加载3D地球...

关于 Starlink 35080

正在加载描述...

即将过境

Passes for default location (London). Set your location on the main map for personalized predictions.

高度历史

Loading altitude history...

两行轨道根数

1 65437U 25194D 26150.05841882 .00010087 00000-0 70190-3 0 9992
2 65437 97.4291 4.1466 0002037 70.9359 289.2088 15.05661389 41898
Epoch: May 30, 2026 • Age: 11 hours

当前状态

高度 578.9 km
速度 7.57 km/s
星下点 -80.74°S, 13.66°W
发射日期 Sep 3, 2025
运行时间 0.7 years
类型 internet

技术详情

分类 Payload
质量 575.00 kg
干质量 530.00 kg
总质量 575.00 kg
长度 0.30 m
直径 4.10 m
跨度 29.00 m
形状 Box + pan
制造商 SPXS
平台类型 Starlink V2MO
阶段状态 In Orbit
所有者/国家 SPXS/US

Most Searched